Oelwein, IA

4:07 PM CDT on August 20, 2019 (GMT -0500)
Oelwein Municipal

Weather History for KOLZ - June, 2019

Change the Weather History Date:

Wednesday, June 12, 2019

  Actual Average Record
Temperature  
Mean Temperature 60 °F -  
Max Temperature 68 °F 81 °F 91 °F (1956)
Min Temperature 51 °F 59 °F 43 °F (1974)
Degree Days  
Heating Degree Days 6    
Growing Degree Days 10 (Base 50)    
Moisture  
Dew Point 56 °F    
Average Humidity 88    
Maximum Humidity 100    
Minimum Humidity 56    
Precipitation  
Precipitation 0.00 in - - ()
Sea Level Pressure  
Sea Level Pressure 29.93 in    
Wind  
Wind Speed 9 mph (North)    
Max Wind Speed 21 mph    
Max Gust Speed 29 mph    
Visibility 10 miles    
Events      
Averages and records for this station are not official NWS values.
T = Trace of Precipitation, MM = Missing Value Source: NWS Daily Summary

Daily Weather History Graph

Daily Weather History Graph

Search for Another Location

Airport or City:

Astronomy

Jun. 12, 2019 Rise Set
Actual Time 5:29 AM CDT 8:46 PM CDT
Civil Twilight 4:54 AM CDT 9:21 PM CDT
Nautical Twilight 4:09 AM CDT 10:06 PM CDT
Astronomical Twilight 3:14 AM CDT 11:01 PM CDT
Moon 3:46 PM CDT (6/12) 2:52 AM CDT (6/12)
Length of Visible Light 16h 26m
Length of Day
15h 16m
Waxing Gibbous, 77% of the Moon is Illuminated
Jun 12
Waxing Gibbous
Jun 17
Full
Jun 25
Last Quarter
Jul 2
New
Jul 9
First Quarter

Hourly Weather History & Observations

Time (CDT) Temp. Dew Point Humidity Pressure Visibility Wind Dir Wind Speed Gust Speed Precip Events Conditions
12:15 AM 57.2 °F 57.2 °F 100% 29.99 in 10.0 mi ENE 4.6 mph - N/A   Overcast
12:35 AM 57.2 °F 57.2 °F 100% 29.98 in 10.0 mi NE 4.6 mph - N/A   Overcast
12:55 AM 57.2 °F 57.2 °F 100% 29.98 in 10.0 mi East 5.8 mph - N/A   Mostly Cloudy
1:15 AM 57.2 °F 57.2 °F 100% 29.97 in 10.0 mi ESE 6.9 mph - N/A   Overcast
1:35 AM 57.2 °F 57.2 °F 100% 29.98 in 10.0 mi SE 6.9 mph - N/A   Overcast
1:55 AM 57.2 °F 57.2 °F 100% 29.98 in 10.0 mi SE 4.6 mph - N/A   Overcast
2:15 AM 57.2 °F 57.2 °F 100% 29.98 in 10.0 mi South 4.6 mph - N/A   Overcast
2:35 AM 57.2 °F 57.2 °F 100% 29.97 in 6.0 mi SSE 6.9 mph - N/A   Overcast
2:55 AM 57.2 °F 57.2 °F 100% 29.95 in 9.0 mi ESE 5.8 mph - N/A   Overcast
3:15 AM 57.2 °F 57.2 °F 100% 29.95 in 10.0 mi SE 5.8 mph - N/A   Overcast
3:35 AM 57.2 °F 57.2 °F 100% 29.94 in 10.0 mi SE 8.1 mph - N/A   Overcast
3:55 AM 57.2 °F 57.2 °F 100% 29.93 in 10.0 mi SE 8.1 mph - N/A   Overcast
4:15 AM 57.2 °F 57.2 °F 100% 29.93 in 10.0 mi SE 6.9 mph - N/A   Overcast
4:35 AM 57.2 °F 57.2 °F 100% 29.94 in 4.0 mi SSW 4.6 mph - N/A   Overcast
4:55 AM 57.2 °F 57.2 °F 100% 29.94 in 7.0 mi WSW 4.6 mph - N/A   Overcast
5:15 AM 57.2 °F 57.2 °F 100% 29.93 in 10.0 mi West 3.5 mph - N/A   Overcast
5:35 AM 57.2 °F 57.2 °F 100% 29.93 in 10.0 mi Calm Calm - N/A   Overcast
5:55 AM 57.2 °F 57.2 °F 100% 29.93 in 9.0 mi WSW 4.6 mph - N/A   Overcast
6:15 AM 57.2 °F 57.2 °F 100% 29.93 in 10.0 mi Calm Calm - N/A   Overcast
6:35 AM 57.2 °F 57.2 °F 100% 29.93 in 10.0 mi WSW 4.6 mph - N/A   Overcast
6:55 AM 57.2 °F 57.2 °F 100% 29.93 in 10.0 mi WSW 4.6 mph - N/A   Overcast
7:15 AM 59.0 °F 59.0 °F 100% 29.93 in 10.0 mi West 8.1 mph - N/A   Overcast
7:35 AM 57.2 °F 57.2 °F 100% 29.93 in 10.0 mi West 10.4 mph - N/A   Overcast
7:55 AM 57.2 °F 57.2 °F 100% 29.93 in 10.0 mi West 6.9 mph - N/A   Overcast
8:15 AM 59.0 °F 59.0 °F 100% 29.92 in 10.0 mi WNW 5.8 mph - N/A   Overcast
8:55 AM 57.2 °F 57.2 °F 100% 29.92 in 3.0 mi NW 13.8 mph - N/A   Mostly Cloudy
9:15 AM 57.2 °F 57.2 °F 100% 29.92 in 1.8 mi NNW 10.4 mph - N/A   Mostly Cloudy
9:35 AM 59.0 °F 59.0 °F 100% 29.92 in 10.0 mi NNW 13.8 mph - N/A   Mostly Cloudy
9:55 AM 59.0 °F 59.0 °F 100% 29.92 in 10.0 mi North 13.8 mph 19.6 mph N/A   Overcast
10:15 AM 57.2 °F 57.2 °F 100% 29.91 in 8.0 mi North 17.3 mph - N/A   Mostly Cloudy
10:35 AM 59.0 °F 59.0 °F 100% 29.92 in 10.0 mi North 17.3 mph - N/A   Mostly Cloudy
10:55 AM 60.8 °F 59.0 °F 94% 29.92 in 10.0 mi North 18.4 mph 24.2 mph N/A   Overcast
11:15 AM - - N/A% 29.93 in - North 13.8 mph - N/A   Unknown
11:35 AM 62.6 °F 57.2 °F 82% 29.93 in 10.0 mi North 17.3 mph - N/A   Unknown
11:55 AM 62.6 °F 57.2 °F 82% 29.93 in 10.0 mi North 13.8 mph 19.6 mph N/A   Mostly Cloudy
12:15 PM 64.4 °F 57.2 °F 77% 29.92 in 10.0 mi North 16.1 mph - N/A   Scattered Clouds
12:35 PM 64.4 °F 57.2 °F 77% 29.93 in 10.0 mi North 15.0 mph - N/A   Partly Cloudy
12:55 PM 62.6 °F 57.2 °F 82% 29.92 in 10.0 mi North 11.5 mph 19.6 mph N/A   Mostly Cloudy
1:15 PM 64.4 °F 57.2 °F 77% 29.92 in 10.0 mi North 12.7 mph 19.6 mph N/A   Scattered Clouds
1:55 PM 64.4 °F 57.2 °F 77% 29.91 in 10.0 mi North 12.7 mph 20.7 mph N/A   Mostly Cloudy
2:15 PM 64.4 °F 55.4 °F 73% 29.91 in 10.0 mi North 13.8 mph 21.9 mph N/A   Mostly Cloudy
2:35 PM 66.2 °F 57.2 °F 73% 29.90 in 10.0 mi North 13.8 mph 20.7 mph N/A   Scattered Clouds
2:55 PM 66.2 °F 57.2 °F 73% 29.90 in 10.0 mi NNE 13.8 mph 20.7 mph N/A   Scattered Clouds
3:15 PM 66.2 °F 57.2 °F 73% 29.89 in 10.0 mi North 15.0 mph - N/A   Mostly Cloudy
3:35 PM 68.0 °F 55.4 °F 64% 29.89 in 10.0 mi NNW 19.6 mph 27.6 mph N/A   Mostly Cloudy
3:55 PM 68.0 °F 55.4 °F 64% 29.89 in 10.0 mi North 18.4 mph - N/A   Mostly Cloudy
4:15 PM 66.2 °F 53.6 °F 64% 29.89 in 10.0 mi North 15.0 mph 21.9 mph N/A   Mostly Cloudy
4:35 PM 68.0 °F 53.6 °F 60% 29.89 in 10.0 mi North 20.7 mph 28.8 mph N/A   Mostly Cloudy
4:55 PM 60.8 °F 53.6 °F 77% 29.90 in 9.0 mi North 18.4 mph 27.6 mph N/A   Mostly Cloudy
5:15 PM 62.6 °F 55.4 °F 77% 29.90 in 10.0 mi NNW 13.8 mph 21.9 mph N/A   Mostly Cloudy
5:55 PM 66.2 °F 50.0 °F 56% 29.89 in 10.0 mi North 18.4 mph 25.3 mph N/A   Scattered Clouds
6:15 PM 66.2 °F 51.8 °F 60% 29.89 in 10.0 mi North 19.6 mph 27.6 mph N/A   Clear
6:35 PM 64.4 °F 51.8 °F 64% 29.90 in 10.0 mi North 15.0 mph - N/A   Partly Cloudy
6:55 PM 66.2 °F 50.0 °F 56% 29.90 in 10.0 mi North 15.0 mph 20.7 mph N/A   Mostly Cloudy
7:15 PM 64.4 °F 51.8 °F 64% 29.90 in 10.0 mi North 11.5 mph - N/A   Partly Cloudy
7:35 PM 64.4 °F 51.8 °F 64% 29.91 in 10.0 mi North 10.4 mph - N/A   Partly Cloudy
7:55 PM 62.6 °F 53.6 °F 72% 29.92 in 10.0 mi NNE 13.8 mph - N/A   Mostly Cloudy
8:15 PM 60.8 °F 53.6 °F 77% 29.93 in 10.0 mi NNE 11.5 mph - N/A   Scattered Clouds
8:35 PM 59.0 °F 53.6 °F 82% 29.93 in 10.0 mi NNE 6.9 mph - N/A   Clear
8:55 PM 59.0 °F 53.6 °F 82% 29.93 in 10.0 mi NNE 6.9 mph - N/A   Partly Cloudy
9:15 PM 57.2 °F 53.6 °F 88% 29.96 in 10.0 mi North 10.4 mph - N/A   Mostly Cloudy
9:35 PM 57.2 °F 53.6 °F 88% 29.95 in 7.0 mi NNE 8.1 mph 16.1 mph N/A   Overcast
9:55 PM 55.4 °F 53.6 °F 94% 29.96 in 10.0 mi North 6.9 mph - N/A   Overcast
10:15 PM 55.4 °F 53.6 °F 94% 29.96 in 10.0 mi North 5.8 mph - N/A   Mostly Cloudy
10:35 PM 55.4 °F 53.6 °F 94% 29.97 in 10.0 mi NNW 6.9 mph - N/A   Mostly Cloudy
10:55 PM 53.6 °F 53.6 °F 100% 29.97 in 10.0 mi NW 6.9 mph - N/A   Scattered Clouds
11:15 PM 51.8 °F 51.8 °F 100% 29.97 in 10.0 mi NW 6.9 mph - N/A   Scattered Clouds
11:35 PM 51.8 °F 51.8 °F 100% 29.97 in 10.0 mi NW 8.1 mph - N/A   Partly Cloudy
11:55 PM 51.8 °F 51.8 °F 100% 29.97 in 10.0 mi NW 8.1 mph - N/A   Partly Cloudy